Regional Weather Roundup
Issued by NWS

Home | Current Version | Previous Version | Graphics & Text | Print | Product List | Glossary On
Versions: 1 2 3 4 5 6 7 8 9 10 11 12 13 14 15 16 17 18 19 20 21 22 23 24 25 26 27 28 29 30 31 32 33 34 35 36 37 38 39 40 41 42 43 44 45 46 47 48 49 50
000
ASUS43 KLMK 260510
RWRKY
KENTUCKY REGIONAL WEATHER ROUNDUP
NATIONAL WEATHER SERVICE LOUISVILLE KY
100 AM EDT SUN MAR 26 2017

NOTE "FAIR" INDICATES FEW OR NO CLOUDS BELOW 12,000 FEET
WITH NO SIGNIFICANT WEATHER AND/OR OBSTRUCTIONS TO VISIBILITY.

KYZ001>023-026-027-061>063-070>075-260600-
WESTERN AND SOUTH CENTRAL KENTUCKY

CITY           SKY/WX    TMP DP  RH WIND       PRES   REMARKS
PADUCAH        CLOUDY    59  55  87 S8        29.91S
HENDERSON      CLOUDY    61  54  77 SE13G18   29.92S
OWENSBORO      LGT RAIN  61  57  87 S12       29.96S
HOPKINSVILLE   CLOUDY    61  56  84 S13       29.95S
BOWLING GREEN  LGT RAIN  60  56  86 S12       30.00F
GLASGOW        LGT RAIN N/A N/A N/A S8        30.02F
$$

KYZ024-025-028>034-038-045-046-053-260600-
NORTH CENTRAL KENTUCKY

CITY           SKY/WX    TMP DP  RH WIND       PRES   REMARKS
LOUISVILLE/SDF LGT RAIN  63  55  75 S15       30.00S
LOUISVILLE/LOU LGT RAIN  64  54  69 S10G20    30.01S
FORT KNOX      LGT RAIN  59  57  95 S14G23    29.98F
$$

KYZ035>037-039>044-047>052-055>060-089>105-260600-
NORTHEAST KENTUCKY

CITY           SKY/WX    TMP DP  RH WIND       PRES   REMARKS
LEXINGTON      LGT RAIN  63  53  70 SW8       30.03S
COVINGTON      LGT RAIN  62  55  77 CALM      30.01S
FRANKFORT      CLOUDY    63  54  72 SW13      30.01S
$$

KYZ054-064>069-076>088-106>120-260600-
SOUTHEAST KENTUCKY

CITY           SKY/WX    TMP DP  RH WIND       PRES   REMARKS
JACKSON        MOCLDY    64  46  52 CALM      30.06S
LONDON         CLOUDY    60  46  59 SE3       30.05F
SOMERSET       CLOUDY    59  52  77 CALM      30.06S
MIDDLESBORO    CLOUDY    62  49  63 CALM      30.09S
MONTICELLO     MOCLDY    57  53  86 N9        30.06F
$$




USA.gov is the U.S. government's official web portal to all federal, state and local government web resources and services.